Location: Erp
(42.9417°N, 1.2009°E)
Time: 06:48:58
(UTC+00:00)

ARIANE 6 FM1 Upper Stage - Visible Passes

Search period start: 08 March 2026 00:00
Search period end: 18 March 2026 00:00
Orbit: 523 x 607 km, 62.0° (Epoch: 8 March)

Date Brightness Start Highest point End Pass type
(mag) Time Alt. Az. Time Alt. Az. Time Alt. Az.
8 Mar 5.3 04:21:13 10° SSE 04:23:52 17° ESE 04:26:29 10° ENE visible
9 Mar 4.7 04:20:23 11° S 04:23:33 24° ESE 04:26:52 10° ENE visible
10 Mar 4.0 04:21:06 21° S 04:23:15 36° ESE 04:26:59 10° NE visible
11 Mar 3.2 04:21:36 35° S 04:22:59 54° ESE 04:26:56 10° NE visible
12 Mar 2.6 04:21:55 56° SSW 04:22:44 81° SE 04:26:48 10° NE visible
13 Mar 2.5 04:22:07 63° W 04:22:31 69° NW 04:26:33 10° NE visible
14 Mar 5.8 02:46:11 11° ENE 02:46:11 11° ENE 02:46:31 10° ENE visible
14 Mar 2.9 04:22:11 47° NW 04:22:19 47° NW 04:26:14 10° NNE visible
15 Mar 5.7 02:46:10 13° ENE 02:46:10 13° ENE 02:46:44 10° ENE visible
15 Mar 3.5 04:22:10 34° NW 04:22:10 34° NW 04:25:51 10° NNE visible
16 Mar 5.6 02:46:04 14° NE 02:46:04 14° NE 02:46:44 10° NE visible
16 Mar 3.9 04:22:03 25° NW 04:22:03 25° NW 04:25:24 10° NNE visible
17 Mar 5.6 02:45:53 15° NE 02:45:53 15° NE 02:46:35 10° NE visible
17 Mar 4.3 04:21:53 19° NW 04:21:54 19° NW 04:24:52 10° N visible
